Wind_Speed
38 41 43 46 48 51 55 59 63 67 70 74 77 81 85 88 89 88 85 82 79 78 77 76 75 76 76 76 74 72 70 69 70 68 66 63 62 62 63 66 73 83 93
39 42 44 47 50 53 57 61 65 68 71 74 78 82 85 87 87 84 81 79 77 76 75 74 75 76 75 72 69 66 64 62 62 64 65 64 62 64 62 62 67 75 85
40 43 46 49 51 55 59 63 66 69 72 75 79 82 85 86 84 81 78 76 75 75 74 74 75 74 73 69 65 61 57 54 52 55 59 62 63 62 61 62 63 67 75
41 44 47 50 53 56 60 64 67 70 72 76 79 82 84 83 81 78 76 74 74 73 73 73 74 72 70 66 62 56 51 45 42 44 49 55 60 61 60 60 60 61 66
43 46 49 51 54 57 61 65 68 70 73 76 79 81 82 81 79 76 74 73 72 72 72 72 72 70 67 62 58 52 45 37 31 31 38 45 53 57 57 58 58 58 60
44 47 49 52 55 58 62 66 68 70 73 76 79 81 81 79 76 73 72 71 71 71 71 71 69 67 63 58 53 47 40 32 24 20 25 34 43 50 54 55 55 55 56
45 47 50 53 56 59 63 66 68 70 73 76 78 79 79 77 74 72 70 70 69 69 69 69 67 64 60 53 49 43 37 30 21 13 15 24 33 42 48 51 52 52 52
45 48 51 54 57 60 63 66 68 70 72 75 77 78 77 75 73 71 69 69 69 68 68 68 66 62 57 49 44 39 34 28 20 11 8 16 25 34 41 45 48 49 49
47 49 52 54 57 60 64 66 68 69 72 74 76 77 76 74 71 69 68 68 68 67 67 66 64 61 55 47 39 34 30 25 18 12 6 10 18 27 34 39 43 45 46
49 51 53 56 58 61 64 66 67 69 71 73 75 75 74 72 70 68 67 67 66 66 66 65 63 59 54 46 37 31 27 22 17 12 7 7 13 21 28 34 38 41 43
52 54 55 57 59 61 64 66 67 69 71 73 74 74 73 70 69 67 66 65 65 65 65 64 63 59 54 46 37 30 26 21 16 12 8 7 10 17 23 29 33 37 40
55 56 57 58 59 62 64 66 67 68 70 72 73 73 71 69 68 66 65 64 64 64 64 63 62 60 54 47 39 31 25 21 16 12 8 7 10 14 19 24 29 33 36
58 59 59 60 60 62 64 66 67 68 69 71 72 71 70 68 67 65 63 63 63 63 63 62 61 60 56 50 42 34 27 21 17 13 9 8 10 13 17 21 25 29 33
60 61 61 62 62 63 64 66 66 67 69 70 71 70 69 67 66 64 63 62 62 62 61 62 61 60 57 52 45 37 30 23 18 14 10 8 9 12 15 19 22 26 29
61 63 64 64 63 64 65 66 66 67 68 69 70 70 68 67 65 63 62 61 61 61 60 60 60 59 57 54 48 41 33 26 20 15 10 7 7 10 13 16 19 22 26
62 64 66 66 65 64 65 66 66 66 67 68 69 69 67 66 64 63 61 60 59 59 59 59 59 58 56 53 50 44 36 28 21 15 10 6 5 7 10 13 16 19 23
62 64 66 68 67 66 66 66 66 66 67 68 68 68 67 65 64 62 60 59 58 58 58 57 57 57 56 53 50 45 38 30 23 17 11 7 4 5 8 11 14 17 20
62 64 66 68 68 67 66 66 66 66 66 67 68 67 66 65 63 61 60 59 58 57 56 56 56 56 55 54 51 47 41 33 26 19 13 9 5 3 5 9 12 15 19
61 64 66 68 69 68 67 66 66 65 66 66 67 67 65 64 62 60 59 58 57 56 55 55 54 55 55 53 51 47 42 35 29 22 16 11 7 2 2 6 10 13 17
61 63 66 68 69 69 67 66 66 65 65 66 66 67 65 63 61 60 58 57 56 56 55 54 53 53 53 52 51 48 44 37 31 24 19 14 10 5 2 4 7 11 16
60 63 65 67 68 69 68 66 66 65 64 65 66 66 65 62 61 59 57 56 55 55 54 53 52 51 51 51 50 48 44 39 32 26 20 15 12 8 4 4 5 9 14
59 62 64 66 67 69 68 67 66 64 64 64 65 65 65 62 60 58 56 55 54 53 52 51 50 49 49 49 49 47 44 39 34 28 21 16 13 9 7 5 5 8 13
58 61 63 65 66 68 68 67 66 64 63 63 64 64 64 63 60 57 55 54 53 52 51 49 48 48 47 47 46 46 44 40 35 29 23 17 13 10 8 7 7 8 11
57 59 62 64 65 66 68 67 65 64 63 62 63 63 63 63 60 57 54 53 51 50 49 49 48 47 46 45 45 45 43 41 36 30 25 19 14 11 8 8 7 8 10
55 58 60 62 64 65 66 67 65 64 62 61 61 62 62 62 60 58 54 52 51 49 48 48 47 46 45 44 44 44 43 41 39 33 27 21 16 11 8 7 7 8 10
54 56 59 61 62 64 65 66 65 63 61 60 60 61 61 61 59 56 54 52 50 49 48 47 47 45 44 43 42 41 41 40 39 36 30 23 17 11 8 6 6 8 10
Wind_Direction
322 322 322 323 323 324 324 325 325 324 324 324 323 323 322 321 321 322 322 322 322 321 320 318 316 314 311 307 302 296 288 280 271 263 256 252 249 246 244 241 236 232 228
323 324 325 325 326 326 326 327 326 326 326 325 325 324 324 323 324 325 325 325 325 324 324 322 321 319 316 313 308 302 294 284 273 263 254 247 243 242 241 240 237 233 228
325 326 327 328 328 328 328 328 328 327 327 327 326 326 326 326 327 327 328 328 328 328 327 327 326 325 323 321 317 311 303 290 276 263 252 243 238 238 237 237 236 234 230
328 329 329 329 329 329 329 329 329 329 329 329 328 329 329 329 330 330 330 331 331 331 331 331 331 330 330 328 326 321 314 301 282 264 251 241 235 233 232 234 234 233 231
330 331 330 331 331 331 331 331 330 331 331 331 331 331 331 332 332 333 333 334 334 335 335 336 336 336 335 334 333 331 326 315 295 268 249 238 231 229 228 230 232 232 231
332 332 332 332 333 333 332 332 332 332 333 333 333 333 334 334 335 335 336 337 337 338 339 340 340 340 340 339 340 341 340 334 316 280 249 235 228 226 225 225 229 231 231
334 334 334 334 335 334 334 334 334 334 335 335 335 336 336 337 337 338 339 340 340 341 342 344 344 345 344 344 345 348 349 348 338 306 254 232 226 223 223 222 224 228 230
337 336 336 336 336 336 336 336 336 336 337 337 337 338 338 339 339 340 341 343 344 345 346 347 348 348 348 347 348 351 354 355 354 337 272 234 225 221 220 221 221 224 228
341 339 339 338 338 338 338 338 338 338 338 339 339 340 341 341 342 343 344 345 346 348 349 350 351 351 351 349 349 351 354 355 355 347 305 245 226 220 219 220 220 222 224
345 343 341 340 340 339 339 339 339 339 340 341 341 342 343 343 344 345 346 347 349 350 351 353 354 354 354 351 349 348 350 351 349 342 317 260 230 221 219 219 220 221 223
349 346 344 342 342 341 341 341 341 341 342 343 343 344 344 345 346 347 348 349 351 352 353 355 356 357 356 355 351 347 347 347 344 336 315 270 235 223 220 220 221 222 222
351 349 346 344 343 343 342 342 342 343 343 344 345 346 346 347 348 349 350 351 352 354 355 356 358 359 359 358 355 350 346 343 338 328 307 271 239 226 221 220 221 222 221
353 351 348 346 345 344 344 344 344 344 345 346 346 347 348 348 349 350 351 353 354 355 356 358 359 0 1 2 360 355 350 343 337 328 309 277 247 231 223 221 221 221 220
354 352 350 348 346 345 345 345 345 345 346 347 348 348 349 350 351 352 353 354 355 357 358 359 1 2 3 4 3 0 356 349 341 332 317 287 253 235 226 222 220 219 219
353 353 351 349 347 346 346 346 346 346 347 348 349 349 350 351 352 353 354 355 356 358 359 1 2 3 4 5 6 4 0 354 348 340 326 300 264 238 225 219 218 218 217
352 352 352 350 348 347 346 347 347 347 348 349 350 350 351 352 353 354 355 356 358 359 0 2 3 5 6 6 7 7 4 1 356 349 339 317 276 240 223 216 215 215 214
351 351 351 351 349 348 347 347 348 348 349 350 350 351 352 353 354 354 356 357 359 360 1 3 4 6 7 8 8 8 8 6 4 0 353 338 298 243 224 216 213 211 209
349 349 350 350 350 349 348 347 348 349 349 350 351 352 353 354 354 355 356 358 359 1 2 3 5 7 8 9 10 10 10 11 11 9 7 358 340 265 221 213 211 207 204
347 348 349 349 350 349 348 348 348 349 350 351 352 353 353 354 355 355 356 358 360 1 3 5 6 8 9 10 11 12 13 14 15 15 16 15 13 360 215 204 201 200 199
345 346 347 348 349 349 348 348 348 349 350 351 352 353 354 354 355 356 356 358 360 1 3 5 7 8 9 10 12 13 14 15 16 17 20 23 27 35 86 174 189 193 193
343 344 346 347 348 349 348 347 348 349 349 351 352 353 354 355 355 356 357 358 360 1 3 4 7 8 10 11 12 14 16 17 17 19 22 26 31 40 67 126 164 180 184
341 342 344 345 346 348 348 347 347 348 349 350 352 353 354 355 355 356 357 359 0 1 3 4 6 8 10 11 13 15 16 17 19 20 23 28 34 45 65 96 132 163 175
338 340 342 344 345 346 348 347 347 348 349 350 351 352 353 354 355 357 358 359 0 1 3 3 5 7 10 12 14 16 17 18 19 22 24 27 34 46 63 86 113 146 164
335 337 340 342 343 345 347 347 346 347 348 349 350 352 353 354 355 356 358 359 0 1 2 4 5 7 9 12 14 17 18 19 20 22 25 28 34 45 62 83 108 132 153
332 334 337 339 341 343 345 346 346 346 347 348 350 351 352 353 354 355 357 358 360 1 3 4 6 7 9 11 14 16 18 20 21 22 24 27 32 43 60 83 104 127 147
329 331 334 337 339 341 343 345 345 345 346 347 349 350 351 353 354 354 355 357 359 1 2 4 5 7 8 11 13 15 17 19 21 22 23 25 29 38 55 80 110 131 147
Height
5813 5806 5799 5790 5781 5772 5761 5750 5738 5725 5711 5697 5681 5664 5646 5627 5607 5587 5568 5551 5534 5518 5501 5485 5469 5452 5436 5420 5405 5392 5384 5379 5377 5380 5386 5394 5399 5403 5408 5415 5423 5434 5447
5807 5800 5792 5783 5773 5763 5752 5740 5728 5714 5700 5685 5669 5651 5632 5612 5592 5572 5553 5536 5519 5502 5485 5467 5450 5431 5414 5396 5379 5364 5354 5348 5345 5348 5355 5366 5376 5378 5388 5395 5401 5410 5423
5801 5793 5784 5775 5765 5755 5743 5731 5718 5704 5689 5673 5656 5638 5618 5597 5578 5559 5541 5523 5505 5487 5469 5451 5432 5412 5392 5374 5357 5341 5329 5321 5319 5319 5326 5338 5349 5358 5369 5375 5382 5391 5402
5795 5786 5777 5767 5757 5746 5734 5721 5708 5693 5678 5662 5644 5625 5606 5586 5566 5547 5529 5510 5492 5474 5456 5437 5417 5396 5376 5357 5340 5323 5309 5300 5296 5297 5302 5313 5326 5338 5349 5357 5365 5374 5383
5789 5780 5770 5760 5749 5738 5725 5712 5698 5683 5667 5650 5632 5613 5593 5573 5554 5536 5518 5500 5482 5463 5444 5425 5404 5384 5364 5346 5328 5312 5298 5287 5281 5281 5286 5295 5307 5319 5331 5341 5350 5359 5368
5782 5773 5763 5753 5742 5729 5716 5703 5688 5672 5656 5639 5621 5602 5582 5563 5544 5526 5509 5491 5473 5454 5435 5415 5395 5375 5356 5338 5322 5307 5293 5282 5276 5274 5277 5285 5295 5305 5317 5328 5336 5345 5354
5776 5767 5756 5745 5734 5721 5708 5694 5678 5663 5646 5629 5611 5592 5573 5553 5535 5518 5501 5483 5465 5447 5428 5408 5389 5369 5351 5334 5319 5305 5293 5283 5277 5274 5275 5280 5287 5296 5306 5317 5325 5334 5342
5770 5760 5749 5738 5726 5713 5699 5685 5670 5654 5637 5620 5601 5583 5564 5545 5527 5509 5492 5475 5457 5439 5420 5401 5382 5364 5347 5332 5318 5306 5296 5287 5281 5277 5277 5279 5283 5290 5298 5307 5317 5325 5333
5764 5753 5742 5731 5719 5705 5691 5677 5661 5646 5629 5612 5593 5575 5556 5538 5520 5503 5485 5468 5451 5433 5415 5397 5378 5361 5345 5330 5318 5308 5299 5291 5285 5281 5279 5279 5282 5287 5293 5301 5309 5317 5324
5758 5747 5736 5724 5711 5698 5684 5669 5654 5638 5622 5604 5586 5568 5550 5532 5515 5497 5480 5463 5446 5429 5411 5394 5376 5360 5344 5330 5318 5309 5300 5293 5288 5283 5281 5280 5281 5285 5290 5296 5302 5309 5317
5753 5741 5729 5717 5705 5691 5677 5663 5647 5632 5615 5598 5580 5562 5544 5527 5510 5493 5476 5459 5443 5426 5409 5392 5375 5359 5344 5330 5318 5308 5301 5294 5289 5285 5282 5281 5281 5283 5287 5292 5297 5304 5310
5747 5736 5724 5711 5698 5685 5671 5656 5641 5625 5609 5592 5575 5557 5540 5523 5506 5489 5473 5457 5440 5424 5407 5391 5374 5358 5343 5330 5318 5308 5301 5294 5289 5285 5282 5281 5280 5282 5285 5289 5293 5299 5305
5742 5730 5718 5706 5692 5679 5665 5650 5635 5619 5603 5587 5570 5553 5536 5519 5503 5486 5471 5455 5439 5422 5406 5390 5374 5359 5344 5331 5318 5308 5300 5294 5288 5284 5281 5280 5279 5281 5283 5286 5290 5294 5300
5738 5726 5713 5700 5687 5673 5659 5644 5630 5614 5598 5582 5566 5549 5533 5516 5500 5484 5468 5453 5438 5422 5406 5391 5375 5360 5345 5331 5319 5308 5300 5293 5287 5283 5280 5279 5278 5279 5280 5283 5287 5291 5296
5734 5722 5709 5695 5682 5668 5654 5639 5625 5609 5594 5578 5562 5546 5530 5514 5498 5482 5467 5452 5437 5422 5407 5391 5376 5361 5346 5333 5320 5309 5300 5293 5287 5283 5280 5278 5277 5277 5279 5281 5284 5288 5292
5730 5717 5704 5691 5677 5663 5649 5635 5620 5605 5590 5574 5559 5543 5527 5512 5496 5481 5467 5452 5437 5422 5408 5393 5378 5364 5349 5336 5323 5312 5302 5294 5287 5283 5280 5278 5277 5277 5278 5280 5282 5285 5289
5726 5713 5700 5687 5673 5659 5645 5631 5616 5601 5586 5571 5556 5541 5525 5510 5495 5481 5467 5452 5438 5424 5410 5395 5381 5367 5353 5339 5327 5315 5305 5296 5289 5284 5281 5279 5278 5277 5278 5279 5281 5284 5287
5722 5709 5696 5683 5669 5655 5641 5627 5613 5598 5583 5568 5554 5539 5523 5509 5494 5480 5467 5453 5439 5426 5412 5398 5384 5370 5357 5344 5331 5319 5309 5300 5292 5287 5283 5280 5279 5278 5278 5279 5281 5284 5287
5718 5706 5693 5680 5666 5652 5638 5624 5609 5595 5581 5566 5552 5537 5522 5508 5494 5480 5467 5453 5440 5427 5414 5401 5387 5373 5360 5348 5336 5324 5313 5304 5296 5290 5286 5283 5281 5280 5279 5280 5282 5284 5287
5713 5702 5689 5676 5663 5649 5634 5621 5607 5593 5579 5565 5550 5536 5522 5508 5494 5480 5467 5453 5440 5428 5415 5402 5389 5377 5365 5353 5341 5329 5318 5309 5301 5295 5290 5286 5284 5282 5282 5282 5284 5286 5288
5709 5697 5685 5673 5659 5646 5632 5618 5604 5591 5577 5563 5549 5535 5521 5508 5494 5481 5468 5454 5441 5428 5416 5404 5392 5381 5369 5358 5346 5334 5324 5315 5307 5300 5295 5291 5288 5286 5285 5285 5286 5288 5290
5704 5693 5681 5669 5656 5643 5629 5615 5602 5589 5575 5562 5549 5535 5522 5508 5495 5482 5468 5455 5442 5430 5418 5407 5396 5385 5374 5363 5351 5340 5330 5321 5313 5306 5300 5296 5293 5291 5290 5289 5290 5291 5293
5699 5689 5677 5666 5653 5640 5626 5613 5600 5586 5573 5560 5547 5534 5521 5508 5496 5483 5470 5457 5445 5433 5422 5411 5400 5389 5378 5368 5357 5347 5336 5327 5319 5312 5306 5301 5298 5296 5295 5294 5294 5295 5298
5694 5684 5673 5662 5650 5637 5624 5610 5597 5584 5571 5559 5546 5533 5520 5507 5495 5483 5471 5460 5448 5437 5425 5414 5403 5392 5382 5372 5362 5352 5343 5334 5325 5318 5312 5307 5304 5301 5300 5300 5300 5301 5302
5688 5679 5669 5658 5646 5634 5621 5608 5595 5582 5570 5557 5544 5532 5519 5506 5494 5482 5472 5460 5449 5438 5427 5416 5406 5396 5385 5375 5365 5356 5348 5339 5331 5323 5317 5313 5309 5307 5305 5305 5305 5306 5307
5682 5673 5664 5653 5642 5630 5618 5606 5593 5580 5568 5556 5543 5531 5518 5505 5493 5481 5470 5459 5449 5439 5428 5417 5407 5397 5388 5378 5370 5361 5353 5345 5337 5330 5323 5318 5314 5312 5310 5310 5310 5311 5312